Vertical_Velocity
-0 0 -0 0 0 -0 -0 -0 -1 -0 1 0 -0 -0 -0 -1 -1 -2 -1 -1 -1 -1 1 0 1 0 -1 -7 -2 2 -0 2 1 1 -2 1 -0 -0 -0 -0 -0 -0 1 -1 1 2 -1
1 0 -0 -0 -0 -0 -1 -1 -0 -1 -1 -1 -1 -1 -2 -2 -1 -1 -2 -2 0 2 2 2 1 -0 1 -10 2 -0 0 1 -1 -2 -1 -1 -1 -2 -2 -0 -0 1 -0 1 1 3 -2
0 1 1 0 -1 -0 0 -0 -1 -0 -1 -1 -1 -1 -1 -1 -1 -2 -1 -1 -1 -2 -3 0 -3 2 -13 2 2 0 4 -2 -2 -1 -1 -2 0 2 -0 1 -1 1 2 1 -3 -0 1
0 1 1 -0 -0 1 -0 -0 -0 -0 -0 -0 0 0 1 -0 0 -0 1 0 0 -1 1 0 0 2 -4 -0 2 14 1 1 -2 -0 0 1 -0 -5 -4 -3 0 1 3 4 5 -2 2
1 0 -0 -1 0 0 0 -0 -1 -1 -0 -1 -0 -1 -0 1 0 -1 -1 -1 -1 -2 -1 1 1 1 2 2 -10 -6 -3 -1 1 1 -1 1 -0 -3 -6 0 3 -1 1 0 2 0 0
2 -0 -0 -0 -0 -0 0 -0 0 -1 -0 -0 -1 -1 -1 1 -2 -3 -2 -2 -1 3 1 1 3 -5 -9 -0 -2 1 1 -3 -3 1 -0 -9 -7 -2 -6 -2 3 0 -0 -1 0 2 -3
0 0 -1 0 -0 -1 -1 -1 -0 0 -1 -1 0 1 0 1 2 1 3 2 2 -5 -24 -3 4 -1 -1 0 1 -4 -3 3 -1 -10 -1 -3 -11 1 5 2 1 1 2 1 -3 -1 5
-0 -0 -1 -0 -0 -2 -1 -1 -1 -2 -1 -1 0 -0 1 1 1 -1 -0 -1 -3 -7 -4 4 -2 -4 -2 -2 -1 -12 -4 -9 -12 0 0 -3 1 3 0 -1 0 0 1 -2 -3 0 7
0 1 1 0 0 0 -1 -2 -0 -0 -2 -2 -0 0 -1 1 -0 -0 -4 -2 -1 -2 -4 1 -1 -2 -1 1 -2 -3 -6 -1 -1 -5 -0 -4 7 -0 -0 -1 -1 -1 1 -0 5 -4 -1
0 1 1 0 -1 0 0 -1 0 0 0 0 0 0 -2 -2 -0 1 -0 -1 -1 -0 -1 2 -4 -3 -7 -1 -1 1 -0 0 -2 1 -1 2 2 -0 -1 0 3 1 1 3 1 4 3
-0 0 2 0 -0 0 -2 -1 -1 -2 -2 -1 -1 -2 1 2 0 -2 -1 -0 -1 -2 3 3 1 2 3 -10 -2 -10 0 0 1 4 6 7 -1 -2 -2 6 2 1 5 4 2 2 5
1 -1 -1 0 1 1 0 -1 -1 -2 -1 -2 -1 -1 -3 -0 -0 -1 -1 1 0 9 1 2 1 0 -2 -4 -1 -3 -2 -5 -3 -3 -2 2 -1 -1 6 -0 1 1 1 1 1 1 5
-1 0 1 -1 -1 -1 1 -1 -1 -1 -3 -1 -0 -1 -1 -2 -1 -1 -1 -3 6 1 3 2 1 -1 0 0 -2 -3 -3 -6 1 2 -2 1 2 1 -2 -1 1 -6 -5 0 3 5 3
-1 -1 -0 -1 -1 -1 -0 0 -2 -0 1 -2 -2 0 -1 -1 1 -1 -0 6 1 2 0 1 0 -0 -1 2 3 0 -1 -0 -1 -2 -0 2 8 0 1 2 5 2 3 3 1 2 -3
-3 -1 -3 1 1 0 -2 0 -1 -1 -2 -1 0 -1 0 0 -3 -1 -0 -3 3 1 2 1 1 -1 1 0 2 -2 -0 0 2 2 2 1 1 -0 -0 0 7 3 -0 4 2 -0 7
-3 -5 -2 -4 -1 2 1 2 1 -2 -1 -2 0 0 -1 -1 -0 1 -6 -1 1 -0 -0 1 1 3 0 0 -0 -2 0 2 1 -0 -0 3 2 1 1 3 3 2 4 9 2 2 -3
-1 -3 -2 -6 -7 -5 -1 0 4 0 1 1 -3 1 0 -0 1 -1 -1 2 0 0 2 1 -0 0 1 1 1 0 1 3 -0 1 -0 -0 3 3 4 1 2 2 1 -0 5 3 4
5 3 -2 2 -3 -9 -8 -7 1 -0 -1 1 -0 0 -2 -2 -8 -1 -0 1 -1 1 -1 -0 -3 -1 -0 0 -0 0 1 2 -2 -0 1 1 2 0 1 1 0 0 0 1 5 -4 -2
-2 -3 2 6 1 1 -6 -8 -7 -4 -1 -2 0 -1 -2 -0 -0 1 2 1 -1 1 0 0 0 -0 -0 -0 1 -0 -0 0 -0 0 1 0 1 -0 5 10 4 2 -1 -0 1 3 -4
-3 -1 -5 2 3 3 3 -3 -2 -3 -5 -5 1 1 -4 -8 -1 -3 -1 1 1 -1 -0 0 -1 -1 -0 0 1 1 0 1 -1 -0 -0 2 0 3 2 1 6 0 -1 -1 3 5 -3
0 -2 1 -3 -3 2 5 0 -5 -1 -1 -4 -2 0 1 1 0 -1 -2 -1 0 1 -0 0 2 -0 -1 0 1 -0 0 0 1 -0 1 3 1 2 -3 -1 2 1 1 -1 3 -4 9
1 1 -3 -2 -3 -3 2 2 -1 -3 -0 -1 -1 -4 -1 -1 -0 -1 0 1 -2 2 -1 1 1 0 -0 -0 -2 -1 -1 1 -2 2 0 0 -2 1 -5 -1 1 1 -1 0 -0 -2 0
-0 2 2 -0 1 -2 -1 -0 -1 -3 -1 -1 -2 0 -2 -1 0 1 -1 -0 -1 -3 0 0 -3 -1 2 -3 -2 -1 -1 -1 -0 -0 -0 1 1 1 -4 0 -0 4 -2 -1 -1 0 7
-0 2 1 -0 0 1 -1 -0 1 -5 0 0 -1 -1 -1 1 0 -1 -0 -1 -1 -1 -3 0 -1 -0 -1 -0 -1 1 0 0 1 -1 -0 1 1 1 -1 -0 3 9 0 1 4 -1 -1
2 3 2 2 -1 2 -0 2 -1 0 -4 0 -1 -0 -3 0 -1 1 1 -2 0 1 -2 -2 0 -1 -0 1 2 2 3 5 2 0 1 1 1 1 4 1 -5 3 -0 1 6 -19 -1
5 3 4 2 2 -2 -0 1 1 -0 -0 2 3 1 -1 -12 1 -1 -2 -0 -1 0 2 1 1 -2 -0 1 1 1 -0 -0 2 4 0 0 0 4 1 3 1 4 1 -0 1 1 -1
3 -1 0 2 5 -0 0 -3 -7 3 -1 -4 2 2 -1 -9 -0 -1 -0 -2 -1 -1 -1 -0 0 1 -2 0 1 1 0 0 1 -0 1 1 1 1 -1 0 -4 1 -1 -2 12 12 -1
6 2 1 2 6 -4 -0 4 -11 -1 -5 -3 0 0 -3 -5 1 1 -2 -2 -1 -0 -1 2 2 2 1 3 2 -1 1 1 2 0 -1 -0 1 -0 1 2 0 -2 2 8 5 -4 1
5 9 8 4 7 7 -2 2 -5 -2 1 -3 -1 -2 -2 -3 -1 5 1 -1 -1 -2 -4 -1 1 -2 -0 -1 2 1 1 2 0 1 2 4 3 2 2 2 0 -0 -1 -0 0 2 -2
Height
1580 1579 1577 1576 1574 1572 1570 1567 1565 1562 1558 1555 1552 1548 1545 1542 1539 1537 1534 1532 1530 1529 1528 1528 1529 1529 1530 1531 1539 1537 1534 1532 1532 1530 1529 1528 1527 1528 1526 1529 1531 1530 1536 1539 1540 1539 1540
1582 1581 1579 1577 1575 1573 1570 1568 1565 1562 1558 1555 1551 1548 1545 1542 1539 1536 1534 1532 1531 1530 1530 1531 1531 1531 1531 1536 1541 1537 1536 1534 1533 1531 1530 1529 1530 1530 1531 1532 1530 1535 1537 1540 1541 1541 1542
1583 1581 1580 1577 1576 1573 1571 1568 1565 1562 1559 1555 1551 1548 1544 1541 1539 1536 1534 1533 1533 1533 1533 1533 1533 1533 1532 1544 1541 1539 1537 1535 1533 1532 1531 1531 1530 1531 1532 1533 1536 1535 1535 1538 1542 1542 1542
1584 1582 1580 1578 1577 1574 1571 1568 1566 1562 1559 1555 1551 1547 1544 1540 1539 1537 1535 1534 1534 1533 1533 1533 1533 1533 1540 1543 1542 1540 1539 1536 1534 1533 1532 1531 1531 1531 1535 1537 1538 1537 1535 1529 1546 1545 1543
1585 1583 1581 1580 1578 1575 1572 1569 1566 1562 1558 1554 1551 1547 1544 1541 1539 1537 1536 1535 1534 1534 1535 1534 1534 1534 1544 1544 1540 1540 1538 1537 1536 1535 1532 1532 1532 1537 1539 1537 1532 1537 1522 1535 1538 1547 1546
1585 1583 1582 1580 1577 1575 1572 1569 1566 1562 1558 1554 1551 1548 1545 1542 1539 1538 1537 1537 1536 1536 1536 1536 1537 1541 1548 1549 1546 1543 1539 1537 1535 1533 1534 1533 1539 1542 1546 1537 1522 1546 1537 1541 1542 1545 1548
1586 1584 1582 1580 1577 1574 1572 1569 1565 1561 1557 1554 1551 1548 1544 1542 1540 1538 1536 1537 1540 1539 1538 1547 1550 1551 1552 1550 1549 1544 1538 1537 1536 1536 1538 1543 1543 1552 1558 1558 1557 1555 1552 1547 1548 1553 1551
1586 1585 1583 1580 1577 1574 1572 1569 1565 1561 1557 1554 1551 1548 1544 1541 1539 1537 1536 1535 1534 1540 1549 1552 1551 1551 1551 1549 1548 1546 1542 1543 1547 1545 1546 1547 1558 1566 1565 1562 1558 1557 1551 1547 1549 1553 1554
1586 1584 1582 1580 1577 1575 1572 1569 1565 1560 1557 1554 1551 1548 1545 1541 1539 1538 1535 1535 1536 1538 1544 1553 1553 1553 1554 1554 1555 1553 1549 1550 1552 1552 1551 1548 1567 1567 1564 1562 1558 1555 1555 1556 1556 1552 1549
1586 1584 1582 1580 1577 1574 1571 1568 1564 1560 1557 1553 1550 1548 1545 1542 1541 1537 1537 1537 1538 1539 1538 1557 1556 1557 1556 1555 1559 1558 1554 1555 1556 1557 1558 1565 1569 1564 1563 1564 1566 1554 1561 1559 1555 1551 1536
1585 1583 1582 1580 1577 1574 1571 1567 1563 1560 1556 1554 1550 1547 1545 1541 1541 1539 1539 1537 1538 1541 1536 1561 1560 1560 1559 1558 1561 1560 1557 1556 1557 1558 1559 1570 1569 1568 1564 1570 1569 1563 1562 1559 1555 1551 1550
1584 1583 1581 1579 1577 1574 1571 1566 1563 1560 1557 1554 1550 1547 1544 1542 1540 1539 1537 1538 1540 1538 1540 1561 1563 1563 1561 1563 1564 1564 1561 1559 1562 1562 1564 1568 1572 1570 1569 1569 1567 1564 1556 1553 1552 1548 1550
1583 1582 1580 1578 1576 1573 1570 1566 1563 1559 1556 1553 1550 1546 1543 1542 1540 1537 1537 1539 1538 1533 1563 1561 1563 1565 1567 1569 1569 1569 1571 1568 1565 1558 1561 1566 1568 1571 1572 1564 1565 1562 1550 1538 1541 1544 1532
1583 1581 1579 1577 1575 1573 1570 1566 1562 1559 1556 1552 1549 1546 1544 1541 1538 1536 1537 1539 1536 1559 1562 1567 1567 1569 1568 1575 1576 1576 1573 1572 1577 1574 1570 1567 1557 1570 1570 1570 1569 1565 1563 1558 1561 1546 1544
1582 1580 1579 1577 1575 1572 1570 1566 1563 1559 1555 1551 1548 1545 1543 1540 1537 1535 1537 1538 1551 1563 1569 1567 1566 1562 1568 1572 1574 1574 1578 1580 1581 1580 1572 1569 1568 1575 1574 1572 1570 1565 1565 1571 1570 1559 1559
1581 1579 1577 1575 1574 1571 1569 1567 1562 1558 1554 1550 1546 1543 1542 1539 1537 1536 1537 1555 1565 1568 1569 1567 1560 1570 1562 1572 1570 1572 1575 1584 1582 1582 1581 1580 1573 1574 1573 1573 1571 1568 1572 1566 1562 1566 1558
1579 1577 1576 1574 1572 1570 1568 1566 1561 1557 1553 1548 1544 1543 1542 1539 1538 1537 1545 1560 1567 1570 1571 1569 1568 1569 1573 1573 1576 1577 1581 1583 1584 1583 1581 1580 1581 1572 1572 1573 1572 1569 1568 1569 1570 1565 1559
1576 1575 1574 1571 1569 1568 1567 1565 1561 1557 1552 1548 1544 1543 1542 1539 1542 1553 1559 1566 1569 1570 1571 1571 1572 1573 1572 1576 1574 1576 1579 1583 1586 1586 1583 1583 1581 1575 1572 1577 1578 1575 1570 1571 1570 1561 1558
1573 1572 1571 1569 1567 1564 1563 1562 1560 1557 1553 1549 1545 1542 1542 1539 1542 1558 1566 1568 1571 1571 1571 1570 1571 1572 1575 1575 1576 1579 1582 1584 1585 1585 1582 1583 1581 1574 1565 1577 1578 1574 1572 1571 1571 1571 1564
1566 1567 1568 1567 1565 1562 1560 1558 1557 1555 1553 1551 1548 1544 1543 1543 1552 1556 1562 1566 1568 1572 1572 1571 1572 1574 1575 1576 1579 1578 1579 1581 1583 1584 1584 1583 1580 1579 1573 1572 1570 1570 1568 1570 1572 1566 1556
1561 1561 1562 1562 1561 1561 1558 1555 1554 1553 1551 1550 1549 1552 1551 1552 1556 1560 1561 1565 1567 1570 1572 1572 1573 1573 1574 1576 1578 1578 1579 1580 1580 1581 1581 1581 1577 1577 1574 1570 1570 1570 1568 1569 1569 1567 1567
1555 1556 1557 1558 1557 1557 1555 1553 1551 1550 1549 1548 1548 1550 1554 1557 1558 1558 1562 1565 1565 1570 1571 1570 1570 1573 1575 1576 1575 1576 1577 1577 1575 1579 1579 1581 1575 1576 1569 1565 1567 1567 1567 1570 1568 1565 1563
1550 1549 1550 1551 1551 1551 1551 1550 1549 1548 1547 1546 1545 1546 1547 1556 1557 1555 1557 1561 1563 1567 1572 1570 1571 1573 1573 1573 1575 1575 1575 1577 1578 1577 1576 1577 1575 1573 1566 1565 1562 1563 1566 1570 1569 1567 1564
1542 1544 1543 1544 1545 1546 1546 1546 1545 1544 1545 1544 1544 1544 1545 1551 1553 1554 1557 1559 1563 1566 1569 1571 1571 1572 1574 1573 1574 1574 1574 1575 1576 1577 1578 1576 1578 1576 1567 1565 1561 1569 1572 1572 1569 1566 1562
1535 1537 1537 1538 1539 1540 1541 1541 1541 1541 1541 1541 1541 1541 1542 1549 1553 1558 1559 1560 1565 1566 1568 1569 1571 1574 1575 1575 1574 1572 1571 1571 1572 1573 1576 1577 1577 1571 1571 1567 1559 1572 1571 1573 1572 1561 1565
1527 1529 1531 1532 1533 1534 1536 1536 1536 1537 1538 1538 1538 1538 1539 1541 1552 1552 1558 1562 1563 1565 1568 1568 1570 1571 1575 1575 1572 1569 1559 1561 1565 1570 1576 1577 1576 1573 1576 1573 1562 1564 1572 1574 1574 1559 1565
1522 1523 1524 1525 1526 1528 1529 1530 1532 1535 1535 1536 1536 1536 1537 1540 1549 1550 1554 1558 1560 1563 1564 1567 1570 1570 1572 1572 1569 1568 1564 1567 1562 1563 1568 1570 1571 1568 1564 1567 1559 1569 1572 1572 1566 1563 1565
1515 1516 1517 1518 1519 1521 1523 1524 1526 1530 1531 1534 1534 1534 1537 1538 1547 1549 1552 1555 1558 1561 1563 1565 1568 1569 1570 1570 1567 1569 1568 1569 1568 1569 1567 1566 1563 1562 1570 1571 1566 1569 1569 1569 1566 1565 1563
1508 1509 1508 1510 1511 1514 1517 1518 1520 1524 1527 1530 1533 1532 1533 1536 1547 1550 1551 1554 1556 1558 1562 1563 1565 1567 1566 1568 1572 1573 1569 1577 1571 1558 1573 1569 1568 1563 1566 1557 1566 1568 1567 1567 1566 1563 1560